| time (UTC) | temp F | wind direction | speed MPH | gust MPH | rain 1hr in | rain 24hr in | rain mn in | humidity % | barometer mb |
| 20260902102209 | 68 | 274 | 5.0 | 21.0 | 0.00 | 0.04 | 0.01 | 75 | 1012.9 |
| 20260902101707 | 68 | 226 | 11.0 | 22.0 | 0.00 | 0.04 | 0.01 | 74 | 1012.9 |
| 20260902095707 | 67 | 233 | 9.0 | 18.0 | 0.00 | 0.04 | 0.01 | 76 | 1012.8 |
| 20260902094709 | 67 | 249 | 14.0 | 22.0 | 0.00 | 0.04 | 0.01 | 76 | 1012.8 |
| 20260902094206 | 67 | 245 | 11.0 | 17.0 | 0.00 | 0.04 | 0.01 | 74 | 1012.9 |
| 20260902093706 | 67 | 249 | 14.0 | 20.0 | 0.00 | 0.04 | 0.01 | 75 | 1012.9 |
| 20260902093206 | 67 | 249 | 10.0 | 24.0 | 0.00 | 0.04 | 0.01 | 77 | 1012.9 |
| 20260902092706 | 67 | 215 | 17.0 | 23.0 | 0.00 | 0.04 | 0.01 | 77 | 1012.8 |
| 20260902092206 | 66 | 254 | 9.0 | 18.0 | 0.00 | 0.04 | 0.01 | 78 | 1012.9 |
| 20260902091206 | 66 | 231 | 9.0 | 14.0 | 0.00 | 0.04 | 0.01 | 78 | 1012.8 |
| 20260902085707 | 65 | 214 | 5.0 | 15.0 | 0.00 | 0.04 | 0.01 | 81 | 1013.0 |
| 20260902085207 | 65 | 215 | 10.0 | 20.0 | 0.00 | 0.04 | 0.01 | 80 | 1013.0 |
| 20260902083206 | 65 | 234 | 13.0 | 18.0 | 0.00 | 0.05 | 0.01 | 83 | 1013.0 |
| 20260902081207 | 63 | 234 | 10.0 | 20.0 | 0.00 | 0.05 | 0.01 | 85 | 1013.0 |
| 20260902080208 | 63 | 210 | 10.0 | 17.0 | 0.00 | 0.05 | 0.01 | 85 | 1013.0 |
| 20260902075207 | 63 | 223 | 12.0 | 21.0 | 0.00 | 0.05 | 0.01 | 86 | 1012.9 |
| 20260902074706 | 63 | 206 | 14.0 | 20.0 | 0.00 | 0.05 | 0.01 | 87 | 1012.9 |
| 20260902074207 | 63 | 201 | 10.0 | 20.0 | 0.00 | 0.05 | 0.01 | 88 | 1012.9 |
| 20260902073707 | 63 | 189 | 11.0 | 21.0 | 0.00 | 0.05 | 0.01 | 88 | 1012.9 |
| 20260902073207 | 62 | 250 | 7.0 | 13.0 | 0.00 | 0.05 | 0.01 | 89 | 1012.9 |
| 20260902072706 | 62 | 191 | 10.0 | 20.0 | 0.00 | 0.05 | 0.01 | 89 | 1012.9 |
| 20260902071707 | 61 | 195 | 8.0 | 15.0 | 0.00 | 0.05 | 0.01 | 90 | 1012.7 |
| 20260902065706 | 60 | 210 | 9.0 | 18.0 | 0.00 | 0.05 | 0.01 | 91 | 1012.7 |
| 20260902065207 | 60 | 210 | 9.0 | 14.0 | 0.00 | 0.05 | 0.01 | 91 | 1012.7 |
| 20260902064706 | 60 | 217 | 7.0 | 14.0 | 0.00 | 0.05 | 0.01 | 91 | 1012.7 |
| 20260902061707 | 59 | 223 | 9.0 | 16.0 | 0.00 | 0.06 | 0.01 | 92 | 1012.7 |
| 20260902060206 | 58 | 199 | 9.0 | 16.0 | 0.00 | 0.06 | 0.01 | 92 | 1012.7 |
| 20260902055207 | 58 | 204 | 6.0 | 14.0 | 0.00 | 0.06 | 0.01 | 92 | 1012.7 |
| 20260902054706 | 58 | 201 | 10.0 | 15.0 | 0.00 | 0.06 | 0.01 | 92 | 1012.7 |
| 20260902053206 | 58 | 183 | 7.0 | 15.0 | 0.00 | 0.06 | 0.01 | 92 | 1012.7 |
| 20260902052705 | 58 | 190 | 6.0 | 14.0 | 0.00 | 0.06 | 0.01 | 92 | 1012.7 |
| 20260902052206 | 58 | 197 | 6.0 | 13.0 | 0.00 | 0.06 | 0.01 | 92 | 1012.7 |
| 20260902051706 | 58 | 194 | 6.0 | 13.0 | 0.00 | 0.06 | 0.01 | 92 | 1012.7 |
| 20260902051205 | 58 | 182 | 6.0 | 14.0 | 0.00 | 0.06 | 0.01 | 92 | 1012.7 |
| 20260902050707 | 57 | 193 | 7.0 | 9.0 | 0.00 | 0.06 | 0.01 | 92 | 1012.6 |
| 20260902045205 | 57 | 229 | 5.0 | 13.0 | 0.00 | 0.06 | 0.01 | 92 | 1012.7 |
| 20260902043707 | 56 | 186 | 5.0 | 8.0 | 0.00 | 0.06 | 0.01 | 91 | 1012.7 |
| 20260902041705 | 56 | 168 | 6.0 | 13.0 | 0.00 | 0.06 | 0.01 | 91 | 1012.8 |
| 20260902040707 | 56 | 185 | 6.0 | 8.0 | 0.00 | 0.06 | 0.01 | 91 | 1012.7 |
| 20260902040206 | 56 | 159 | 6.0 | 10.0 | 0.00 | 0.06 | 0.01 | 91 | 1012.8 |
| 20260902035705 | 56 | 184 | 6.0 | 13.0 | 0.00 | 0.06 | 0.01 | 91 | 1012.8 |
| 20260902034707 | 55 | 172 | 6.0 | 10.0 | 0.00 | 0.06 | 0.01 | 91 | 1012.8 |
| 20260902033706 | 55 | 168 | 5.0 | 8.0 | 0.00 | 0.06 | 0.01 | 91 | 1012.8 |
| 20260902032208 | 55 | 181 | 5.0 | 7.0 | 0.00 | 0.06 | 0.01 | 91 | 1013.0 |
| 20260902031708 | 55 | 201 | 5.0 | 7.0 | 0.01 | 0.06 | 0.01 | 91 | 1013.0 |
| 20260902031206 | 55 | 186 | 3.0 | 6.0 | 0.01 | 0.06 | 0.01 | 91 | 1012.9 |
| 20260902030706 | 55 | 190 | 6.0 | 8.0 | 0.01 | 0.06 | 0.01 | 91 | 1012.9 |
| 20260902024706 | 54 | 176 | 3.0 | 6.0 | 0.01 | 0.06 | 0.01 | 90 | 1012.9 |
| 20260902024208 | 54 | 176 | 5.0 | 6.0 | 0.01 | 0.06 | 0.01 | 90 | 1013.0 |
| 20260902023208 | 54 | 166 | 3.0 | 6.0 | 0.01 | 0.06 | 0.01 | 90 | 1012.9 |
| 20260902022706 | 54 | 156 | 2.0 | 5.0 | 0.01 | 0.06 | 0.01 | 90 | 1012.9 |
| 20260902022208 | 55 | 171 | 3.0 | 6.0 | 0.01 | 0.06 | 0.01 | 90 | 1012.9 |
| 20260902020706 | 54 | 174 | 4.0 | 7.0 | 0.00 | 0.05 | 0.00 | 90 | 1012.9 |
| 20260902020207 | 54 | 198 | 3.0 | 7.0 | 0.00 | 0.05 | 0.00 | 90 | 1012.9 |
| 20260902015707 | 54 | 174 | 3.0 | 6.0 | 0.00 | 0.05 | 0.00 | 90 | 1012.9 |
| 20260902015205 | 55 | 174 | 4.0 | 5.0 | 0.00 | 0.05 | 0.00 | 90 | 1012.8 |
| 20260902014705 | 55 | 175 | 2.0 | 5.0 | 0.00 | 0.05 | 0.00 | 90 | 1012.9 |
| 20260902014206 | 55 | 182 | 3.0 | 7.0 | 0.00 | 0.05 | 0.00 | 90 | 1012.9 |
| 20260902013206 | 54 | 201 | 4.0 | 7.0 | 0.00 | 0.05 | 0.00 | 90 | 1012.8 |
| 20260902012206 | 54 | 183 | 4.0 | 6.0 | 0.00 | 0.05 | 0.00 | 89 | 1012.8 |
| 20260902011707 | 54 | 195 | 2.0 | 5.0 | 0.00 | 0.05 | 0.00 | 89 | 1012.8 |
| 20260902011206 | 54 | 202 | 2.0 | 6.0 | 0.00 | 0.05 | 0.00 | 89 | 1012.8 |
| 20260902010706 | 55 | 219 | 2.0 | 6.0 | 0.00 | 0.05 | 0.00 | 89 | 1012.8 |
| 20260902005205 | 55 | 189 | 2.0 | 3.0 | 0.00 | 0.05 | 0.00 | 89 | 1013.0 |
| 20260902004705 | 55 | 211 | 3.0 | 5.0 | 0.00 | 0.05 | 0.00 | 89 | 1013.0 |
| 20260902002705 | 55 | 247 | 5.0 | 7.0 | 0.00 | 0.05 | 0.00 | 89 | 1013.0 |
| 20260902002205 | 55 | 237 | 5.0 | 6.0 | 0.00 | 0.05 | 0.00 | 88 | 1013.0 |
| 20260902001706 | 55 | 225 | 4.0 | 6.0 | 0.00 | 0.05 | 0.00 | 88 | 1013.1 |
| 20260901235705 | 56 | 249 | 2.0 | 6.0 | 0.00 | 0.05 | 0.00 | 88 | 1013.1 |
| 20260901233705 | 56 | 233 | 3.0 | 6.0 | 0.00 | 0.05 | 0.00 | 88 | 1013.2 |
| 20260901233207 | 57 | 266 | 2.0 | 5.0 | 0.00 | 0.05 | 0.00 | 87 | 1013.3 |
| 20260901231706 | 57 | 267 | 5.0 | 14.0 | 0.00 | 0.05 | 0.00 | 88 | 1013.3 |
| 20260901225706 | 58 | 269 | 6.0 | 13.0 | 0.00 | 0.05 | 0.00 | 88 | 1013.1 |
| 20260901224206 | 58 | 265 | 6.0 | 17.0 | 0.00 | 0.06 | 0.00 | 89 | 1013.0 |
| 20260901223705 | 58 | 267 | 9.0 | 14.0 | 0.00 | 0.06 | 0.00 | 89 | 1013.0 |
| 20260901222705 | 58 | 277 | 7.0 | 14.0 | 0.00 | 0.06 | 0.00 | 89 | 1012.9 |
| 20260901220706 | 58 | 236 | 3.0 | 7.0 | 0.00 | 0.06 | 0.00 | 89 | 1012.8 |
| 20260901215705 | 58 | 238 | 2.0 | 5.0 | 0.00 | 0.06 | 0.06 | 89 | 1012.8 |
| 20260901215206 | 58 | 252 | 1.0 | 6.0 | 0.00 | 0.06 | 0.06 | 89 | 1012.8 |
| 20260901211705 | 59 | 270 | 2.0 | 6.0 | 0.00 | 0.06 | 0.06 | 89 | 1012.7 |
| 20260901211205 | 59 | 244 | 4.0 | 5.0 | 0.00 | 0.06 | 0.06 | 89 | 1012.6 |
| 20260901210206 | 59 | 233 | 3.0 | 5.0 | 0.00 | 0.06 | 0.06 | 89 | 1012.5 |
| 20260901205205 | 59 | 244 | 3.0 | 5.0 | 0.00 | 0.06 | 0.06 | 89 | 1012.5 |
| 20260901204706 | 59 | 264 | 2.0 | 8.0 | 0.00 | 0.06 | 0.06 | 89 | 1012.5 |
| 20260901204205 | 59 | 244 | 5.0 | 9.0 | 0.00 | 0.06 | 0.06 | 89 | 1012.4 |
| 20260901203706 | 60 | 245 | 3.0 | 5.0 | 0.00 | 0.06 | 0.06 | 89 | 1012.4 |
| 20260901200705 | 60 | 246 | 5.0 | 8.0 | 0.03 | 0.07 | 0.06 | 88 | 1012.2 |
| 20260901200207 | 60 | 249 | 5.0 | 9.0 | 0.03 | 0.07 | 0.06 | 88 | 1012.2 |
| 20260901194705 | 60 | 232 | 4.0 | 6.0 | 0.03 | 0.09 | 0.06 | 87 | 1012.1 |
| 20260901194205 | 60 | 241 | 2.0 | 6.0 | 0.03 | 0.09 | 0.06 | 87 | 1012.1 |
| 20260901193206 | 61 | 253 | 5.0 | 7.0 | 0.03 | 0.09 | 0.06 | 86 | 1012.0 |
| 20260901192706 | 61 | 251 | 4.0 | 7.0 | 0.03 | 0.09 | 0.06 | 86 | 1012.0 |
| 20260901191705 | 61 | 260 | 6.0 | 10.0 | 0.03 | 0.09 | 0.06 | 85 | 1012.0 |
| 20260901190205 | 61 | 263 | 3.0 | 6.0 | 0.00 | 0.05 | 0.03 | 84 | 1011.8 |
| 20260901185705 | 61 | 275 | 3.0 | 7.0 | 0.00 | 0.05 | 0.03 | 83 | 1011.8 |
| 20260901184205 | 62 | 262 | 4.0 | 7.0 | 0.00 | 0.05 | 0.03 | 82 | 1011.5 |
| 20260901183206 | 62 | 274 | 3.0 | 7.0 | 0.00 | 0.05 | 0.03 | 80 | 1011.5 |
| 20260901182705 | 63 | 268 | 6.0 | 8.0 | 0.00 | 0.05 | 0.03 | 80 | 1011.5 |
| 20260901182205 | 63 | 270 | 5.0 | 7.0 | 0.00 | 0.05 | 0.03 | 79 | 1011.5 |
| 20260901180205 | 64 | 243 | 6.0 | 8.0 | 0.00 | 0.05 | 0.03 | 77 | 1011.4 |
| 20260901173706 | 66 | 267 | 11.0 | 15.0 | 0.00 | 0.05 | 0.03 | 75 | 1011.0 |
| 20260901164207 | 68 | 300 | 5.0 | 13.0 | 0.00 | 0.05 | 0.03 | 73 | 1010.7 |
| 20260901163705 | 68 | 251 | 7.0 | 14.0 | 0.00 | 0.05 | 0.03 | 72 | 1010.7 |
| 20260901162705 | 69 | 263 | 7.0 | 13.0 | 0.00 | 0.05 | 0.03 | 70 | 1010.7 |
| 20260901162204 | 69 | 256 | 10.0 | 17.0 | 0.00 | 0.05 | 0.03 | 71 | 1010.6 |
| 20260901161205 | 69 | 256 | 7.0 | 16.0 | 0.00 | 0.05 | 0.03 | 73 | 1010.6 |
| 20260901154705 | 68 | 298 | 8.0 | 17.0 | 0.00 | 0.05 | 0.03 | 73 | 1010.6 |
| 20260901153707 | 68 | 267 | 10.0 | 17.0 | 0.00 | 0.06 | 0.03 | 73 | 1010.6 |
| 20260901152208 | 68 | 257 | 10.0 | 16.0 | 0.00 | 0.06 | 0.03 | 74 | 1010.5 |
| 20260901151705 | 68 | 261 | 7.0 | 17.0 | 0.00 | 0.07 | 0.03 | 75 | 1010.4 |
| 20260901151206 | 68 | 270 | 9.0 | 16.0 | 0.00 | 0.10 | 0.03 | 76 | 1010.4 |
| 20260901150705 | 68 | 227 | 13.0 | 23.0 | 0.00 | 0.11 | 0.03 | 77 | 1010.4 |
| 20260901150206 | 67 | 230 | 5.0 | 15.0 | 0.00 | 0.11 | 0.03 | 79 | 1010.5 |
| 20260901145707 | 66 | 231 | 8.0 | 14.0 | 0.00 | 0.11 | 0.03 | 78 | 1010.5 |
| 20260901145206 | 66 | 244 | 7.0 | 10.0 | 0.00 | 0.11 | 0.03 | 78 | 1010.5 |
| 20260901144205 | 67 | 243 | 9.0 | 16.0 | 0.00 | 0.11 | 0.03 | 77 | 1010.5 |
| 20260901142706 | 68 | 239 | 9.0 | 15.0 | 0.00 | 0.11 | 0.03 | 74 | 1010.4 |
| 20260901142205 | 68 | 258 | 7.0 | 14.0 | 0.00 | 0.11 | 0.03 | 73 | 1010.4 |
| 20260901141705 | 69 | 241 | 5.0 | 17.0 | 0.00 | 0.11 | 0.03 | 73 | 1010.3 |
| 20260901141205 | 69 | 252 | 9.0 | 17.0 | 0.00 | 0.11 | 0.03 | 72 | 1010.3 |
| 20260901134707 | 70 | 235 | 10.0 | 20.0 | 0.00 | 0.11 | 0.03 | 69 | 1010.1 |
| 20260901134206 | 70 | 238 | 11.0 | 17.0 | 0.00 | 0.11 | 0.03 | 69 | 1010.1 |
| 20260901133705 | 70 | 258 | 8.0 | 16.0 | 0.00 | 0.11 | 0.03 | 69 | 1010.1 |
| 20260901132706 | 69 | 275 | 8.0 | 16.0 | 0.00 | 0.11 | 0.03 | 72 | 1010.1 |
| 20260901132205 | 69 | 277 | 9.0 | 14.0 | 0.00 | 0.11 | 0.03 | 72 | 1010.1 |
| 20260901131704 | 68 | 285 | 9.0 | 14.0 | 0.00 | 0.11 | 0.03 | 72 | 1010.1 |
| 20260901130707 | 68 | 300 | 10.0 | 17.0 | 0.00 | 0.11 | 0.03 | 71 | 1010.1 |
| 20260901125704 | 69 | 274 | 5.0 | 13.0 | 0.00 | 0.11 | 0.03 | 72 | 1010.0 |
| 20260901125204 | 69 | 287 | 6.0 | 13.0 | 0.00 | 0.11 | 0.03 | 72 | 1010.0 |
| 20260901124707 | 69 | 294 | 11.0 | 15.0 | 0.00 | 0.11 | 0.03 | 72 | 1010.0 |
| 20260901123206 | 69 | 302 | 6.0 | 13.0 | 0.00 | 0.11 | 0.03 | 73 | 1010.0 |
| 20260901122706 | 69 | 298 | 9.0 | 14.0 | 0.00 | 0.11 | 0.03 | 72 | 1010.0 |
| 20260901122207 | 70 | 289 | 10.0 | 15.0 | 0.00 | 0.11 | 0.03 | 72 | 1010.0 |
| 20260901121707 | 70 | 248 | 8.0 | 14.0 | 0.00 | 0.11 | 0.03 | 71 | 1009.9 |
| 20260901120206 | 69 | 273 | 9.0 | 16.0 | 0.00 | 0.11 | 0.03 | 74 | 1009.9 |
| 20260901115706 | 69 | 273 | 9.0 | 14.0 | 0.00 | 0.11 | 0.03 | 74 | 1009.9 |
| 20260901115207 | 68 | 259 | 5.0 | 14.0 | 0.00 | 0.11 | 0.03 | 75 | 1010.0 |
| 20260901113707 | 67 | 274 | 9.0 | 13.0 | 0.00 | 0.11 | 0.03 | 76 | 1010.0 |
| 20260901112206 | 67 | 286 | 8.0 | 14.0 | 0.00 | 0.11 | 0.03 | 75 | 1009.9 |
| 20260901111206 | 67 | 287 | 7.0 | 14.0 | 0.00 | 0.11 | 0.03 | 77 | 1009.8 |
| 20260901110206 | 67 | 304 | 6.0 | 10.0 | 0.00 | 0.11 | 0.03 | 77 | 1009.8 |
| 20260901105706 | 67 | 289 | 8.0 | 15.0 | 0.00 | 0.11 | 0.03 | 76 | 1009.7 |
| 20260901104706 | 68 | 287 | 13.0 | 18.0 | 0.00 | 0.11 | 0.03 | 77 | 1009.7 |
| 20260901103706 | 67 | 291 | 5.0 | 10.0 | 0.00 | 0.12 | 0.03 | 78 | 1009.8 |
| 20260901102706 | 67 | 254 | 10.0 | 14.0 | 0.00 | 0.12 | 0.03 | 79 | 1009.7 |